sat.trackr.live / text

‹ back to catalog

POPACS 2

NORAD 39269 · 2013-055E

PAYLOAD ACTIVE UNKNOWN

§ Identity

Operator
Country
US
Launch date
2013-09-29
Launch site
AFWTR
Launch vehicle
Mass (kg)
RCS (m²)
0.02

Purposes: tech_demo

External: N2YO · Heavens-Above · Gunter

§ Orbital elements

Epoch: 2026-05-24T11:38:28.313088Z

Period
96.60 min
Inclination
80.9914°
Eccentricity
0.0418106
Mean motion
14.90631761 rev/d
Perigee alt
304.4 km
Apogee alt
887.6 km
Semi-major
6,974.1 km
B*
1.7559e-4
RAAN
171.3152°
Arg perigee
270.0286°
Mean anomaly
85.3033°
Rev number
65,968

§ Raw data

POPACS 21 39269U 13055E   26144.48504992  .00010218  00000+0  17559-3 0  99922 39269  80.9914 171.3152 0418106 270.0286  85.3033 14.90631761659681

JSON: /api/v1/satellites/39269 · /tle

For live sub-satellite position, see the globe view (requires WebGL).

§ Visibility from observer

Set your observer location to see the next 7 days of passes ≥ 10°. The values pass through the URL so the page stays shareable.

No JS? Fill the form by hand. The geolocation button needs JavaScript.